Tracking 35237 objects as of 5-Sep-2026
HD Live streaming from Space Station
objects crossing your sky now

CZ-4B DEB


CZ-4B DEB is no longer on orbit


NORAD ID: 38185
Int'l Code: 2010-051F
Launch date: October 6, 2010
Source: People's Republic of China (PRC)
Launch site: Taiyaun Space Center, China (TSC)
Decay date: 2014-02-01

Note: This is SATELLITE DEBRIS
Your satellite tracking list
Your tracking list is empty




NASA's NSSDC Master Catalog

Two Line Element Set (TLE):
1 38185U 10051F   14031.22908128  .02401393  48404-2  46353-2 0  9990
2 38185 097.5458 090.2883 0007165 039.5531 033.3685 16.01610768181576
Source of the keplerian elements: AFSPC